When you browse on this site, cookies collect data to enhance your experience and personalize the content and advertising you see.
Visit our Privacy Policy to learn more. By continuing to use the site, you agree to this use of cookies and data.
  • In Österreich
  • Länderverzeichnis
  • Für 7 Tage
  • Wassertemperatur
  • Wetterkarte
  • News
  • Widgets
  • user-avatar
    Anmelden

    Stündliche Wetter Mareynica

    Heute, 4 Juni, Donnerstag

    Zeit Temperatur Niederschläge Wind Luftdruck Luftfeuchtigkeit
    00:00 +8°C° 0 mm 1 m/S 739 mmHg 98%
    01:00 +8°C° 0 mm 1 m/S 739 mmHg 98%
    02:00 +8°C° 0 mm 1 m/S 739 mmHg 99%
    03:00 +9°C° 0 mm 1 m/S 738 mmHg 98%
    04:00 +10°C° 0 mm 1 m/S 738 mmHg 97%
    05:00 +10°C° 0 mm 0 m/S 737 mmHg 97%
    06:00 +11°C° 0 mm 1 m/S 737 mmHg 93%
    07:00 +12°C° 0 mm 1 m/S 737 mmHg 90%
    08:00 +13°C° 0 mm 1 m/S 737 mmHg 87%
    09:00 +15°C° 0 mm 1 m/S 736 mmHg 79%
    10:00 +16°C° 0 mm 1 m/S 736 mmHg 70%
    11:00 +19°C° 0 mm 1 m/S 736 mmHg 62%
    12:00 +18°C° 0.3 mm 2 m/S 736 mmHg 63%
    13:00 +18°C° 0.3 mm 2 m/S 736 mmHg 64%
    14:00 +18°C° 0.3 mm 3 m/S 736 mmHg 66%
    15:00 +18°C° 0.8 mm 3 m/S 736 mmHg 73%
    16:00 +17°C° 0.8 mm 3 m/S 735 mmHg 80%
    17:00 +16°C° 0.8 mm 3 m/S 735 mmHg 86%
    18:00 +15°C° 0.4 mm 2 m/S 735 mmHg 89%
    19:00 +14°C° 0.4 mm 2 m/S 735 mmHg 91%
    20:00 +13°C° 0.4 mm 2 m/S 735 mmHg 93%
    21:00 +12°C° 0 mm 2 m/S 736 mmHg 94%
    22:00 +10°C° 0 mm 2 m/S 736 mmHg 95%
    23:00 +9°C° 0 mm 2 m/S 736 mmHg 96%

    Morgen, 5 Juni, Freitag

    Zeit Temperatur Niederschläge Wind Luftdruck Luftfeuchtigkeit
    00:00 +9°C° 0 mm 2 m/S 736 mmHg 96%
    01:00 +8°C° 0 mm 2 m/S 736 mmHg 97%
    02:00 +8°C° 0 mm 2 m/S 736 mmHg 97%
    03:00 +8°C° 0 mm 2 m/S 736 mmHg 97%
    04:00 +8°C° 0 mm 2 m/S 736 mmHg 97%
    05:00 +8°C° 0 mm 2 m/S 736 mmHg 97%
    06:00 +10°C° 0 mm 2 m/S 736 mmHg 93%
    07:00 +13°C° 0 mm 2 m/S 736 mmHg 89%
    08:00 +13°C° 0 mm 3 m/S 737 mmHg 85%
    09:00 +16°C° 0.4 mm 3 m/S 737 mmHg 78%
    10:00 +17°C° 0.4 mm 3 m/S 737 mmHg 70%
    11:00 +18°C° 0.4 mm 3 m/S 737 mmHg 63%
    12:00 +19°C° 0.1 mm 3 m/S 737 mmHg 61%
    13:00 +19°C° 0.1 mm 3 m/S 737 mmHg 59%
    14:00 +20°C° 0.1 mm 3 m/S 737 mmHg 57%
    15:00 +20°C° 0 mm 3 m/S 737 mmHg 58%
    16:00 +20°C° 0 mm 3 m/S 737 mmHg 58%
    17:00 +20°C° 0 mm 2 m/S 737 mmHg 59%
    18:00 +18°C° 0 mm 2 m/S 737 mmHg 68%
    19:00 +17°C° 0 mm 2 m/S 738 mmHg 78%
    20:00 +15°C° 0 mm 2 m/S 738 mmHg 87%
    21:00 +14°C° 0 mm 2 m/S 738 mmHg 90%
    22:00 +13°C° 0 mm 2 m/S 738 mmHg 93%
    23:00 +11°C° 0 mm 3 m/S 738 mmHg 95%

    übermorgen, 6 Juni, Samstag

    Zeit Temperatur Niederschläge Wind Luftdruck Luftfeuchtigkeit
    00:00 +12°C° 0 mm 3 m/S 738 mmHg 95%
    01:00 +12°C° 0 mm 3 m/S 738 mmHg 95%
    02:00 +13°C° 0 mm 3 m/S 738 mmHg 95%
    03:00 +13°C° 0 mm 3 m/S 738 mmHg 95%
    04:00 +14°C° 0 mm 4 m/S 738 mmHg 95%
    05:00 +15°C° 0 mm 4 m/S 738 mmHg 94%
    06:00 +17°C° 0 mm 4 m/S 739 mmHg 89%
    07:00 +18°C° 0 mm 4 m/S 739 mmHg 84%
    08:00 +20°C° 0 mm 4 m/S 739 mmHg 79%
    09:00 +21°C° 0.1 mm 5 m/S 739 mmHg 76%
    10:00 +22°C° 0.1 mm 5 m/S 740 mmHg 73%
    11:00 +23°C° 0.1 mm 5 m/S 740 mmHg 69%
    12:00 +22°C° 0.6 mm 5 m/S 740 mmHg 75%
    13:00 +22°C° 0.6 mm 5 m/S 740 mmHg 80%
    14:00 +21°C° 0.6 mm 5 m/S 741 mmHg 86%
    15:00 +21°C° 0.5 mm 4 m/S 741 mmHg 85%
    16:00 +21°C° 0.5 mm 4 m/S 741 mmHg 85%
    17:00 +21°C° 0.5 mm 4 m/S 741 mmHg 84%
    18:00 +20°C° 0.4 mm 3 m/S 741 mmHg 87%
    19:00 +19°C° 0.4 mm 3 m/S 742 mmHg 90%
    20:00 +18°C° 0.4 mm 2 m/S 742 mmHg 93%
    21:00 +17°C° 0 mm 2 m/S 743 mmHg 94%
    22:00 +16°C° 0 mm 2 m/S 743 mmHg 95%
    23:00 +15°C° 0 mm 2 m/S 744 mmHg 96%

    7 Juni, Sonntag

    Zeit Temperatur Niederschläge Wind Luftdruck Luftfeuchtigkeit
    00:00 +15°C° 0 mm 1 m/S 744 mmHg 95%
    01:00 +14°C° 0 mm 1 m/S 745 mmHg 95%
    02:00 +14°C° 0 mm 1 m/S 745 mmHg 95%
    03:00 +14°C° 0 mm 1 m/S 746 mmHg 94%
    04:00 +14°C° 0 mm 1 m/S 746 mmHg 94%
    05:00 +14°C° 0 mm 1 m/S 746 mmHg 93%
    06:00 +16°C° 0 mm 1 m/S 746 mmHg 88%
    07:00 +19°C° 0 mm 1 m/S 747 mmHg 83%
    08:00 +21°C° 0 mm 1 m/S 747 mmHg 78%
    09:00 +21°C° 0 mm 2 m/S 747 mmHg 72%
    10:00 +24°C° 0 mm 2 m/S 747 mmHg 65%
    11:00 +25°C° 0 mm 2 m/S 747 mmHg 59%
    12:00 +25°C° 0.3 mm 3 m/S 747 mmHg 64%
    13:00 +25°C° 0.3 mm 3 m/S 747 mmHg 69%
    14:00 +25°C° 0.3 mm 4 m/S 746 mmHg 74%
    15:00 +24°C° 0.3 mm 3 m/S 746 mmHg 78%
    16:00 +22°C° 0.3 mm 3 m/S 746 mmHg 82%
    17:00 +22°C° 0.3 mm 3 m/S 746 mmHg 87%
    18:00 +21°C° 0.1 mm 3 m/S 746 mmHg 88%
    19:00 +21°C° 0.1 mm 3 m/S 746 mmHg 90%
    20:00 +20°C° 0.1 mm 3 m/S 746 mmHg 92%
    21:00 +20°C° 0 mm 3 m/S 746 mmHg 93%
    22:00 +19°C° 0 mm 3 m/S 746 mmHg 94%
    23:00 +18°C° 0 mm 3 m/S 746 mmHg 95%

    8 Juni, Montag

    Zeit Temperatur Niederschläge Wind Luftdruck Luftfeuchtigkeit
    00:00 +18°C° 0 mm 3 m/S 746 mmHg 95%
    01:00 +18°C° 0 mm 3 m/S 746 mmHg 96%
    02:00 +17°C° 0 mm 3 m/S 746 mmHg 97%
    03:00 +17°C° 0 mm 3 m/S 746 mmHg 96%
    04:00 +17°C° 0 mm 3 m/S 746 mmHg 94%
    05:00 +17°C° 0 mm 3 m/S 746 mmHg 93%
    06:00 +19°C° 0 mm 3 m/S 746 mmHg 88%
    07:00 +21°C° 0 mm 3 m/S 746 mmHg 82%
    08:00 +24°C° 0 mm 3 m/S 747 mmHg 77%
    09:00 +25°C° 0 mm 3 m/S 747 mmHg 70%
    10:00 +26°C° 0 mm 3 m/S 747 mmHg 64%
    11:00 +27°C° 0 mm 4 m/S 747 mmHg 58%
    12:00 +28°C° 0 mm 4 m/S 747 mmHg 56%
    13:00 +28°C° 0 mm 4 m/S 746 mmHg 54%
    14:00 +29°C° 0 mm 4 m/S 746 mmHg 52%
    15:00 +28°C° 0.1 mm 3 m/S 746 mmHg 56%
    16:00 +27°C° 0.1 mm 3 m/S 746 mmHg 60%
    17:00 +27°C° 0.1 mm 3 m/S 746 mmHg 65%
    18:00 +25°C° 0.1 mm 2 m/S 746 mmHg 72%
    19:00 +24°C° 0.1 mm 2 m/S 746 mmHg 79%
    20:00 +21°C° 0.1 mm 2 m/S 746 mmHg 87%
    21:00 +20°C° 0 mm 2 m/S 747 mmHg 89%
    22:00 +19°C° 0 mm 2 m/S 747 mmHg 91%
    23:00 +18°C° 0 mm 2 m/S 747 mmHg 94%

    9 Juni, Dienstag

    Zeit Temperatur Niederschläge Wind Luftdruck Luftfeuchtigkeit
    00:00 +18°C° 0 mm 2 m/S 747 mmHg 94%
    01:00 +18°C° 0 mm 2 m/S 747 mmHg 95%
    02:00 +18°C° 0 mm 2 m/S 747 mmHg 96%
    03:00 +18°C° 0 mm 3 m/S 747 mmHg 95%
    04:00 +18°C° 0 mm 3 m/S 747 mmHg 94%
    05:00 +19°C° 0 mm 3 m/S 747 mmHg 93%
    06:00 +21°C° 0 mm 3 m/S 747 mmHg 86%
    07:00 +22°C° 0 mm 3 m/S 747 mmHg 79%
    08:00 +25°C° 0 mm 4 m/S 748 mmHg 72%
    09:00 +26°C° 0 mm 4 m/S 748 mmHg 66%
    10:00 +28°C° 0 mm 4 m/S 748 mmHg 59%
    11:00 +29°C° 0 mm 5 m/S 748 mmHg 53%
    12:00 +29°C° 0.1 mm 5 m/S 748 mmHg 53%
    13:00 +29°C° 0.1 mm 5 m/S 747 mmHg 52%
    14:00 +30°C° 0.1 mm 5 m/S 747 mmHg 52%
    15:00 +29°C° 0.1 mm 4 m/S 747 mmHg 56%
    16:00 +28°C° 0.1 mm 4 m/S 747 mmHg 59%
    17:00 +28°C° 0.1 mm 3 m/S 747 mmHg 63%
    18:00 +26°C° 0.1 mm 3 m/S 747 mmHg 71%
    19:00 +25°C° 0.1 mm 2 m/S 747 mmHg 79%
    20:00 +23°C° 0.1 mm 2 m/S 747 mmHg 87%
    21:00 +21°C° 0 mm 2 m/S 747 mmHg 90%
    22:00 +20°C° 0 mm 2 m/S 748 mmHg 93%
    23:00 +20°C° 0 mm 2 m/S 748 mmHg 96%
    Mehr zeigen